Showing default

USA 25, 18025

Orbit data source: Space-Track

USA 25, 18025 is an American payload satellite in LEO that was launched on Fri, 15 May 1987 UTC via an ATLAS H launch vehicle from the Air Force Western Test Range (AFWTR). Payload-class satellites include a variety of spacecraft equipped with specific instruments for various scientific and technological missions. These include communications satellites like Starlink; space stations such as the ISS; scientific satellites like the Hubble; Earth observation satellites from companies like Planet Labs, Umbra, and HawkEye 360; GPS; miniature CubeSats for education and research; and military/defense satellites.

Loading next visibility...
Identifier
18025, 1987-043H
Orbit
LEO
Country
Flag of USUS
Related business
Manufacturer
Martin Marietta
Mission
Defense Sigint
Bus & Motor
NOSS SSU, Unknown motor
Mass
200 kg wet, 200 kg dry
Launch date (UTC)
1987-05-15 (39 years ago)
Launch vehicle
ATLAS H
Launch site
Air Force Western Test Range (AFWTR)
Object type
Payload
Rocket body
Debris
Shape & HBR
Box + 1 Ant, 5.0 m
Radar Cross Section
1.051 m², Large (>1 m²)

Expand to show TLE details & history
Last TLE update: 2 days ago

TLE from 2 days ago
0 USA 25
1 18025U 87043H   26171.48015705  .00011766  00000-0  62148-3 0  9990
2 18025  63.2923 343.5218 0778595 103.5470 265.3468 13.90842686352337
Epoch: 2026-06-20T11:31Z
TLE epoch observation values (Epoch: 2026-06-20T11:31:25.569Z)
Latitude
-0.00002°
Longitude
-98.02893°
Altitude
1,017.04 km
Speed
7.299 km/s
True Right ascension
22h 54m 05s
True Declination
0° 00' 00"
Sunlit
Object was in daylight at epoch
Visualization orbit readout
Latitude
Unknown
Longitude
Unknown
Altitude
Unknown
Speed
Unknown
Apparent Right ascension
Unknown
Apparent Declination
Unknown
Sunlit
N/A
Visualization observer readout
Local Sidereal Time
00:39:28
Azimuth
Unknown
Elevation
Unknown
Doppler factor
Unknown
Orbital elements
Apogee altitude
1,493.063 km
Perigee altitude
355.906 km
Semi-major axis
7,302.622 km
Eccentricity
0.07786
Inclination
63.2923°
RAAN
343.5218°
Arg. of periapsis
103.547°
True anomaly
256.5584°
Mean anomaly
265.3468°
Eccentric anomaly
260.94142°
Mean motion
3.47796 °/min
Orbital period
103.51 mins
BSTAR
0.00062148
Loading maneuver chart data...
Computing Atmospheric mass density...
Loading historical data...
Loading historical data...
Loading historical data...
Loading historical data...
Loading historical data...
Loading historical data...
Loading historical data...

Documentation

Showing up to 5 results
|